Location: Arrien
(43.3167°N, 0.1500°W)
Time: 00:54:05
(UTC+00:00)

Cosmos 2082 - Visible Passes

Search period start: 22 May 2022 00:00
Search period end: 01 June 2022 00:00
Orbit: 834 x 855 km, 71.0° (Epoch: 21 May)

Date Brightness Start Highest point End Pass type
(mag) Time Alt. Az. Time Alt. Az. Time Alt. Az.
22 May 4.5 20:51:05 10° NNW 20:56:22 40° ENE 20:59:56 19° ESE visible
22 May 4.8 22:35:26 10° NW 22:40:19 31° WSW 22:41:48 27° SW visible
23 May 4.5 20:36:50 10° NNW 20:42:06 38° ENE 20:46:09 16° ESE visible
23 May 4.8 22:21:08 10° NW 22:26:05 33° WSW 22:28:01 26° SW visible
24 May 4.5 20:22:36 10° N 20:27:49 37° ENE 20:32:23 13° ESE visible
24 May 4.8 22:06:49 10° NW 22:11:50 34° WSW 22:14:16 24° SSW visible
25 May 4.6 20:08:22 10° N 20:13:32 36° NE 20:18:40 10° ESE visible
25 May 4.8 21:52:32 10° NW 21:57:36 35° WSW 22:00:33 21° SSW visible
26 May 4.6 19:54:07 10° N 19:59:16 35° NE 20:04:21 10° ESE visible
26 May 4.8 21:38:14 10° NW 21:43:21 37° WSW 21:46:52 18° SSW visible
27 May 4.8 21:23:57 10° NW 21:29:06 38° WSW 21:33:14 15° SSW visible
28 May 4.7 21:09:39 10° NW 21:14:51 39° WSW 21:19:38 12° S visible
29 May 4.7 20:55:22 10° NW 21:00:36 41° WSW 21:05:48 10° S visible
30 May 4.7 20:41:04 10° NW 20:46:21 43° WSW 20:51:36 10° S visible
31 May 4.7 20:26:47 10° NW 20:32:06 44° WSW 20:37:23 10° S visible
